This demonstration page uses our WeatherBlox Daily Observations layout. Learn more.

Left ArrowRight Arrow

Hourly Observations for February 13, 2015

Temp ( °F °C ) Dew Point ( °F °C ) Humidity (%) Winds ( mph kmh ) Pressure ( in mb ) Visibility ( mi km ) Precip ( " mm )
12:53 am 00:53 Cloudy 46 7.8 29 -1.7 51 51 S 6 9 30.29 1026 10 16 0.00 0.00
1:53 am 01:53 Mostly Cloudy 45 7.2 29 -1.7 54 54 Calm 30.29 1026 10 16 0.00 0.00
2:53 am 02:53 Cloudy 46 7.8 31 -0.6 56 56 Calm 30.28 1026 10 16 0.00 0.00
3:53 am 03:53 Cloudy 46 7.8 31 -0.6 56 56 SSE 3 6 30.26 1025 10 16 0.00 0.00
4:53 am 04:53 Mostly Clear 42 5.6 32 0 68 68 Calm 30.24 1024 10 16 0.00 0.00
5:53 am 05:53 Clear 39 3.9 31 -0.6 73 73 E 5 7 30.23 1024 10 16 0.00 0.00
6:53 am 06:53 Clear 39 3.9 31 -0.6 73 73 Calm 30.25 1024 10 16 0.00 0.00
7:53 am 07:53 Sunny 36 2.2 29 -1.7 76 76 Calm 30.27 1025 10 16 0.00 0.00
8:53 am 08:53 Sunny 43 6.1 32 0 65 65 Calm 30.26 1025 10 16 0.00 0.00
9:53 am 09:53 Sunny 48 8.9 34 1.1 58 58 Calm 30.27 1025 10 16 0.00 0.00
10:53 am 10:53 Sunny 56 13.3 35 1.7 46 46 WSW 5 7 30.25 1025 10 16 0.00 0.00
11:53 am 11:53 Sunny 60 15.6 38 3.3 44 44 W 6 9 30.24 1024 10 16 0.00 0.00
12:53 pm 12:53 Sunny 63 17.2 38 3.3 40 40 NNW 5 7 30.21 1023 10 16 0.00 0.00
1:53 pm 13:53 Sunny 66 18.9 39 3.9 37 37 VRB 3 6 30.17 1022 10 16 0.00 0.00
2:53 pm 14:53 Sunny 69 20.6 38 3.3 32 32 NNW 9 15 30.12 1020 10 16 0.00 0.00
3:53 pm 15:53 Sunny 70 21.1 37 2.8 30 30 Calm 30.10 1019 10 16 0.00 0.00
4:53 pm 16:53 Sunny 70 21.1 37 2.8 30 30 VRB 3 6 30.12 1020 10 16 0.00 0.00
5:53 pm 17:53 Sunny 69 20.6 38 3.3 32 32 W 5 7 30.13 1020 10 16 0.00 0.00
6:53 pm 18:53 Clear 64 17.8 38 3.3 38 38 SSW 3 6 30.14 1021 10 16 0.00 0.00
7:53 pm 19:53 Clear 58 14.4 38 3.3 48 48 SE 6 9 30.18 1022 7 11 0.00 0.00
8:53 pm 20:53 Clear 55 12.8 38 3.3 53 53 SE 7 11 30.18 1022 10 16 0.00 0.00
9:53 pm 21:53 Clear 52 11.1 38 3.3 59 59 SSE 7 11 30.19 1022 10 16 0.00 0.00
10:53 pm 22:53 Clear 51 10.6 38 3.3 61 61 ESE 6 9 30.19 1022 10 16 0.00 0.00
11:53 pm 23:53 Clear 45 7.2 37 2.8 74 74 N 3 6 30.20 1023 10 16 0.00 0.00

Powered by AerisWeather